Kalaeloa, HI

10:38 PM HST on July 25, 2017 (GMT -1000)
Kalaeloa (John Rodgers Field)

Weather History for PHJR - December, 2011

Change the Weather History Date:

Friday, December 30, 2011

  Actual Average (PHHI) Record (PHHI)
Temperature  
Mean Temperature 72 °F -  
Max Temperature 79 °F 74 °F 80 °F (2002)
Min Temperature 66 °F 60 °F 58 °F (2014)
Cooling Degree Days 8    
Growing Degree Days 22 (Base 50)    
Moisture  
Dew Point 62 °F    
Average Humidity 71    
Maximum Humidity 84    
Minimum Humidity 56    
Precipitation  
Precipitation 0.00 in - - ()
Sea Level Pressure  
Sea Level Pressure 30.09 in    
Wind  
Wind Speed 3 mph (South)    
Max Wind Speed 9 mph    
Max Gust Speed 16 mph    
Visibility 10 miles    
Events      
Averages and records for this station are not official NWS values.
T = Trace of Precipitation, MM = Missing Value Source: NWS Daily Summary

Daily Weather History Graph

Daily Weather History Graph

Search for Another Location

Airport or City:

Trip Planner

Search our weather history database for the weather conditions in past years. The results will help you decide how hot, cold, wet, or windy it might be!

Date:

Astronomy

Dec. 30, 2011 Rise Set
Actual Time 7:09 AM HST 6:00 PM HST
Civil Twilight 6:45 AM HST 6:24 PM HST
Nautical Twilight 6:17 AM HST 6:52 PM HST
Astronomical Twilight 5:49 AM HST 7:19 PM HST
Moon 11:22 AM HST (12/30) 11:53 PM HST (12/30)
Length of Visible Light 11h 39m
Length of Day
10h 51m
Waxing Crescent, 37% of the Moon is Illuminated
Dec 30
Waxing Crescent
Dec 31
First Quarter
Jan 8
Full
Jan 15
Last Quarter
Jan 22
New

Hourly Weather History & Observations

Time (HST) Temp. Dew Point Humidity Pressure Visibility Wind Dir Wind Speed Gust Speed Precip Events Conditions
12:53 AM 72.0 °F 57.9 °F 61% 30.11 in 10.0 mi Calm Calm - N/A   Overcast
1:53 AM 69.1 °F 59.0 °F 70% 30.09 in 10.0 mi Calm Calm - N/A   Mostly Cloudy
2:53 AM 69.1 °F 59.0 °F 70% 30.08 in 10.0 mi Calm Calm - 0.00 in   Overcast
3:53 AM 70.0 °F 62.1 °F 76% 30.07 in 10.0 mi ENE 3.5 mph - N/A   Overcast
4:53 AM 70.0 °F 60.1 °F 71% 30.08 in 10.0 mi Calm Calm - N/A   Overcast
5:53 AM 66.0 °F 60.1 °F 81% 30.09 in 10.0 mi Calm Calm - N/A   Clear
6:53 AM 66.0 °F 60.1 °F 81% 30.11 in 10.0 mi Calm Calm - N/A   Mostly Cloudy
7:53 AM 69.1 °F 60.1 °F 73% 30.12 in 10.0 mi Calm Calm - N/A   Mostly Cloudy
8:53 AM 71.1 °F 63.0 °F 75% 30.15 in 10.0 mi Variable 5.8 mph - N/A   Overcast
9:53 AM 73.9 °F 64.0 °F 71% 30.16 in 10.0 mi Variable 5.8 mph - N/A   Mostly Cloudy
10:53 AM 77.0 °F 62.1 °F 60% 30.14 in 10.0 mi SSE 9.2 mph - N/A   Scattered Clouds
11:53 AM 75.9 °F 63.0 °F 64% 30.12 in 10.0 mi SE 4.6 mph - N/A   Overcast
12:53 PM 79.0 °F 62.1 °F 56% 30.08 in 10.0 mi SE 9.2 mph - N/A   Mostly Cloudy
1:53 PM 77.0 °F 64.0 °F 64% 30.07 in 10.0 mi Variable 6.9 mph - N/A   Overcast
2:17 PM 77.0 °F 64.4 °F 65% 30.04 in 10.0 mi SSE 4.6 mph - N/A   Overcast
2:50 PM 77.0 °F 64.4 °F 65% 30.04 in 10.0 mi SW 5.8 mph - N/A   Scattered Clouds
2:53 PM 77.0 °F 64.0 °F 64% 30.06 in 10.0 mi SSW 6.9 mph - N/A   Scattered Clouds
3:18 PM 75.2 °F 64.4 °F 69% 30.04 in 10.0 mi SW 6.9 mph 16.1 mph N/A   Mostly Cloudy
3:51 PM 75.2 °F 62.6 °F 65% 30.04 in 10.0 mi SW 6.9 mph - N/A   Overcast
3:53 PM 75.9 °F 63.0 °F 64% 30.06 in 10.0 mi SW 6.9 mph - N/A   Mostly Cloudy
4:53 PM 75.9 °F 64.0 °F 67% 30.06 in 10.0 mi SSW 6.9 mph - N/A   Overcast
5:53 PM 75.0 °F 64.0 °F 69% 30.08 in 10.0 mi South 3.5 mph - N/A   Overcast
6:53 PM 73.9 °F 64.0 °F 71% 30.09 in 10.0 mi Calm Calm - N/A   Overcast
7:12 PM 73.4 °F 64.4 °F 73% 30.07 in 10.0 mi Variable 5.8 mph - N/A   Overcast
7:39 PM 71.6 °F 64.4 °F 78% 30.07 in 10.0 mi Variable 3.5 mph - N/A   Mostly Cloudy
7:53 PM 72.0 °F 64.0 °F 76% 30.09 in 10.0 mi Variable 3.5 mph - N/A   Overcast
8:53 PM 69.1 °F 62.1 °F 78% 30.09 in 10.0 mi Calm Calm - N/A   Clear
9:53 PM 68.0 °F 63.0 °F 84% 30.09 in 10.0 mi Calm Calm - N/A   Scattered Clouds
10:53 PM 66.9 °F 62.1 °F 84% 30.08 in 10.0 mi Calm Calm - N/A   Clear
11:53 PM 66.9 °F 62.1 °F 84% 30.08 in 10.0 mi Calm Calm - N/A   Clear